Gore Bay Manitoulin Airport
CYZE : now visible

Airfield :











YOU CAN JOIN US ON...

 
LOGIN :

Register | Disclaimer

   EN    FR    IT 

 









Legend :    VFR   Marginal VFR   IFR   Intensive IFR   Very Intensive IFR
Visi :
Ceiling :
>= 8 km
>= 3000ft
5 to 8 km
1000 to 3000 ft
1500m to 5 km
500 to 1000 ft
800 to 1500m
200 to 500 ft
< 800m
< 200 ft
Symbols :   Thunderstorms  Fog  Heavy snow  Heavy precipitations  Wind > 20 kt






- Airport Elevation : 635 ft
- IATA code : YZE


CYZE - Gore Bay Manitoulin

CURRENT METAR :
  • 171800Z AUTO 33015G21KT 9SM CLR M04/M09 A2953 RMK SLP014

EXPIRED METARs :
  • 171700Z AUTO 35011KT 9SM CLR M05/M09 A2955 RMK SLP019
  • 171600Z AUTO 02009G20KT 9SM OVC091 M06/M10 A2957 RMK SLP027

TAF TAF CYZE
Valid from the 17 at 14:00 until the 17 at 23:00 UTC


171342Z 1714/1723 02008KT P6SM SCT050 BKN180
TEMPO 1714/1718 BKN020 OVC050
BECMG 1714/1716 35012KT
FM171800 33012G22KT P6SM BKN030
TEMPO 1718/1723 BKN020 RMK FCST BASED ON AUTO OBS. NXT FCST BY 172000Z
CZYZ FIR / North America



MET'MAP, your aeronautical weather chart ! - Copyright ORBIFLY December 2007 - Disclaimer

ORBIFLY MET'MAP TEAM :

Programming & Development : Alexandra Zaïnal
Concept & original design : Baudouin d'Aumeries
Assistance for programming : Marc-Olivier Méhu
Technical & hardware support : Manuel Goepfert

Contact : metmap@orbifly.com




SOURCES & CREDITS :

   NOAA       Earth
Advisory